metlocid,date_time,avg_airt3m,std_airt3m,min_airt3m,max_airt3m,n_airt3m,n_comments
FRSM,12/1/10,-8.392485206,1.337533693,-10.89,-4.06,1014,1
FRSM,1/1/11,-12.18509073,2.165185035,-17.4,-5.85,2976,0
FRSM,2/1/11,-16.27499628,2.291230726,-21.94,-9.7,2688,0
FRSM,3/1/11,-23.36315859,3.564178536,-30.87,-14.55,2976,0
FRSM,4/1/11,-25.35151737,5.83008207,-37.22,-10.24,2880,0
FRSM,5/1/11,-27.00129367,4.130416346,-36.13,-17.92,2976,0
FRSM,6/1/11,-26.51414931,4.295320223,-38.53,-16.6,2880,0
FRSM,7/1/11,-25.42838708,3.74329951,-34.48,-14.87,2976,0
FRSM,8/1/11,-24.84862232,5.92304618,-39.61,-13.37,2976,0
FRSM,9/1/11,-25.74241665,4.901706734,-38.77,-17.64,2880,0
FRSM,10/1/11,-23.88688508,4.326482482,-36.69,-13.22,2976,0
FRSM,11/1/11,-14.93570486,3.038995496,-25.41,-7.04,2880,0
FRSM,12/1/11,-12.74873262,1.759251109,-16.46,-7.54,1294,0
FRSM,1/1/12,-15.21324884,1.133475632,-17.27,-11.84,434,0
FRSM,2/1/12,-16.21720187,3.75474822,-26.98,-3.87,2784,0
FRSM,3/1/12,-23.03513776,3.637986212,-31.42,-13.88,2976,0
FRSM,4/1/12,-26.82196876,3.848346297,-36.34,-17.99,2880,0
FRSM,5/1/12,-25.36129704,4.34590361,-35.23,-13.4,2976,0
FRSM,6/1/12,-28.15102084,5.47182788,-39.76,-15.68,2880,0
FRSM,7/1/12,-29.16360214,3.399355431,-35.11,-19.39,2976,0
FRSM,8/1/12,-28.95026883,4.376076971,-38.75,-18.26,2976,0
FRSM,9/1/12,-27.28084721,2.936245964,-33.59,-18.82,2880,0
FRSM,10/1/12,-23.97823923,2.81842127,-34.92,-17.92,2976,0
FRSM,11/1/12,-16.78930554,2.998918073,-23.46,-8.91,2880,0
FRSM,12/1/12,-10.29394826,3.031814517,-16.76,-2.81,2976,0
FRSM,1/1/13,-10.7999832,2.378910008,-16.2,-4.46,2976,0
FRSM,2/1/13,-17.27726562,3.284493482,-27.38,-9.44,2688,0
FRSM,3/1/13,-22.47872311,5.007041484,-36.13,-12.21,2976,0
FRSM,4/1/13,-28.65937847,3.86748656,-37.48,-19.37,2880,0
FRSM,5/1/13,-25.51924731,3.972076007,-37.5,-17.61,2976,0
FRSM,6/1/13,-26.44455555,6.174876903,-39.79,-12.31,2880,0
FRSM,7/1/13,-30.11653562,2.977208668,-38.6,-22.27,2976,0
FRSM,8/1/13,-27.21331652,5.564581344,-39.7,-13.35,2976,0
FRSM,9/1/13,-22.97492363,3.951888588,-36.67,-13.27,2880,0
FRSM,10/1/13,-22.55778898,4.216433605,-33.11,-14.14,2976,0
FRSM,11/1/13,-17.85723958,3.67055551,-26.31,-7.09,2880,914
FRSM,12/1/13,-12.08358534,1.849170721,-17.11,-5.31,2976,2976
FRSM,1/1/14,-10.8065457,2.921784078,-17.61,-2.81,2976,2976
FRSM,2/1/14,-18.22976191,2.894943156,-25.44,-9,2688,2688
FRSM,3/1/14,-24.55316531,3.205853198,-33.67,-16.53,2976,2976
FRSM,4/1/14,-26.89024999,5.07029661,-39.73,-10.76,2880,2880
FRSM,5/1/14,-23.48162299,4.849502597,-35.13,-12.29,2976,2976
FRSM,6/1/14,-28.96600695,3.68933193,-38.87,-21.69,2880,2880
FRSM,7/1/14,-30.17714381,4.918179448,-39.04,-19.12,2976,2976
FRSM,8/1/14,-26.6948387,3.862249027,-38.71,-17.34,2976,2976
FRSM,9/1/14,-24.29470487,4.856626798,-38.32,-11.02,2880,2880
FRSM,10/1/14,-23.14435149,4.317029068,-33.6,-13.33,2976,2976
FRSM,11/1/14,-17.61916665,2.488703436,-25.58,-10.94,2880,2880
FRSM,12/1/14,-13.99929411,2.661466166,-21.16,-7.22,2975,2975
FRSM,1/1/15,-11.8278461,2.36548747,-17.85,-6.4,2976,2976
FRSM,2/1/15,-15.60977678,2.644243701,-24.3,-10.38,2688,2688
FRSM,3/1/15,-23.96453963,4.204749243,-32.71,-15.3,2976,2976
FRSM,4/1/15,-27.83903819,4.706949802,-39.15,-17.28,2880,2880
FRSM,5/1/15,-27.88574595,4.233179888,-36.22,-18.09,2976,2976
FRSM,6/1/15,-28.75884373,3.096510892,-37.29,-17.79,2880,2880
FRSM,7/1/15,-29.77081314,4.130974302,-39.73,-17.2,2976,2976
FRSM,8/1/15,-29.66651882,4.885929923,-39.79,-19.8,2976,2976
FRSM,9/1/15,-31.5095104,4.258642326,-39.8,-17.48,2880,2880
FRSM,10/1/15,-23.08436155,2.22012287,-30.17,-17.88,2976,2976
FRSM,11/1/15,-18.22276043,4.726043191,-33.29,-7.14,2880,2880
FRSM,12/1/15,-11.42172101,2.344298598,-16.1,-4.33,2975,2975
FRSM,1/1/16,-10.97525202,2.528925416,-16.17,-4.8,2976,2976
FRSM,2/1/16,-17.09721623,3.077606945,-26.54,-9.21,2784,2784
FRSM,3/1/16,-23.45987567,3.927257841,-36.1,-12.17,2976,2976
FRSM,4/1/16,-29.16715628,5.20565695,-38.48,-16.95,2880,2880
FRSM,5/1/16,-25.6805914,5.030838041,-38.95,-15.1,2976,2976
FRSM,6/1/16,-29.81965625,4.29843491,-36.63,-15.94,2880,2880
FRSM,7/1/16,-28.53951613,4.350526919,-39.73,-20.21,2976,2976
FRSM,8/1/16,-25.79876681,3.827789744,-38.15,-15.08,2976,2976
FRSM,9/1/16,-28.15001388,4.215036665,-38.46,-17.2,2880,2880
FRSM,10/1/16,-24.66871306,3.50392854,-38.16,-14.3,2976,2976
FRSM,11/1/16,-15.26476389,3.497024062,-25.39,-6.32,2880,2880
FRSM,12/1/16,-11.46713277,2.388881692,-16.27,-5.13,2975,2975
FRSM,1/1/17,-10.77538979,1.95636689,-15.09,-5.55,2976,2976
FRSM,2/1/17,-16.03609376,3.526254085,-24.27,-8.15,2688,2688
FRSM,3/1/17,-21.56332326,3.324590284,-33.68,-12.92,2976,2976
FRSM,4/1/17,-25.71231945,3.731472229,-36.25,-18.7,2880,2880
FRSM,5/1/17,-24.54661962,3.539516902,-33.33,-15.24,2976,2976
FRSM,6/1/17,-29.16915971,4.932746254,-39.7,-17.48,2880,2880
FRSM,7/1/17,-29.657752,4.400741816,-39.78,-17.43,2976,2976
FRSM,8/1/17,-28.99288309,4.395943159,-39.02,-19.13,2976,2976
FRSM,9/1/17,-28.10442361,4.49830725,-37.83,-16.58,2880,2880
FRSM,10/1/17,-21.91201278,4.116905528,-33.19,-12.86,2976,2976
FRSM,11/1/17,-17.22264071,3.197102651,-25.85,-6.7,2878,2878
FRSM,12/1/17,-13.50923051,2.001932709,-17.3,-5.78,2976,2976
FRSM,1/1/18,-11.267584,2.363966558,-17.49,-5.56,2976,2976
FRSM,2/1/18,-17.33973958,2.521984891,-22.64,-11.02,2688,2688
FRSM,3/1/18,-20.89795362,3.655518794,-32.2,-11.22,2976,2976
FRSM,4/1/18,-25.0130243,4.131695461,-37.66,-14.35,2880,2880
FRSM,5/1/18,-28.29953292,4.133433233,-38.66,-18.95,2976,2976
FRSM,6/1/18,-27.01169444,4.439024068,-39.73,-18.5,2880,2880
FRSM,7/1/18,-27.73002352,4.17328542,-39.77,-18.32,2976,2976
FRSM,8/1/18,-27.52852149,5.859553086,-37.62,-14.1,2976,2976
FRSM,9/1/18,-29.02781599,5.181559368,-39.29,-13.6,2880,2880
FRSM,10/1/18,-22.14279571,4.775905512,-33.1,-9.09,2976,2976
FRSM,11/1/18,-16.722125,3.441454065,-26.2,-7.87,2880,2880
FRSM,12/1/18,-11.52873656,1.810521333,-16.6,-6.53,2976,1693
FRSM,1/1/19,-12.18229502,1.946310848,-19.34,-6.53,2976,0
FRSM,2/1/19,-15.71613094,2.166596107,-22.27,-10.05,2688,0
FRSM,3/1/19,-21.58779568,3.895482538,-33.95,-11.71,2976,0
FRSM,4/1/19,-26.13519443,5.162370137,-38.46,-17.12,2880,0
FRSM,5/1/19,-24.54691868,2.719291102,-31.02,-17,2976,0
FRSM,6/1/19,-30.57754862,5.438642237,-39.76,-19.82,2880,0
FRSM,7/1/19,-24.03590389,4.567782171,-34.23,-14.53,2976,0
FRSM,8/1/19,-26.13933804,3.126293227,-35.75,-17.36,2976,0
FRSM,9/1/19,-28.5821875,3.707304415,-38.25,-18.03,2880,0
FRSM,10/1/19,-24.29138777,3.715690358,-32.48,-16.12,2976,0
FRSM,11/1/19,-14.86792014,2.741797667,-23.85,-7.17,2880,0
FRSM,12/1/19,-11.59358922,1.84342142,-16.09,-5.23,2970,421
FRSM,1/1/20,-10.75045362,2.065915667,-15.76,-4.56,2976,2976
FRSM,2/1/20,-14.17606322,4.434520554,-25.44,-6,2784,2784
FRSM,3/1/20,-24.92839717,4.031699696,-37.64,-15.8,2976,2976
FRSM,4/1/20,-26.04852084,3.963722626,-37.16,-16.4,2880,2880
FRSM,5/1/20,-27.3355074,3.677973487,-36.64,-18.69,2976,2976
FRSM,6/1/20,-28.43541665,4.377022462,-39.73,-16.47,2880,2880
FRSM,7/1/20,-27.06857193,5.640217107,-39.71,-12.41,2976,2976
FRSM,8/1/20,-28.56665658,4.773002714,-39.73,-18.64,2976,2976
FRSM,9/1/20,-27.09335762,5.899295898,-39.39,-12.46,2880,2880
FRSM,10/1/20,-24.59335347,4.507646365,-35.66,-13.57,2976,2976
FRSM,11/1/20,-16.96101388,4.928426565,-27.33,-6.98,2880,2880
FRSM,12/1/20,-11.57439114,2.033413995,-19.01,-6.366,2976,2976
FRSM,1/1/21,-11.90027083,2.061321918,-17.01,-5.07,2976,2976
FRSM,2/1/21,-16.96457962,3.348146521,-25.2,-8.53,2688,2688
FRSM,3/1/21,-22.15408267,3.342218685,-31.95,-12.97,2976,2976
FRSM,4/1/21,-29.12670137,5.612346206,-39.73,-18.6,2880,2880
FRSM,5/1/21,-28.56339044,4.062521101,-38.71,-19.3,2976,2976
FRSM,6/1/21,-27.96787847,4.091843249,-39.02,-19.54,2880,2880
FRSM,7/1/21,-25.45943885,3.86676927,-32.73,-12.15,2976,2976
FRSM,8/1/21,-27.52934141,5.068330677,-39.56,-9.27,2976,2976
FRSM,9/1/21,-27.09896525,3.77321451,-36.18,-17.8,2880,2880
FRSM,10/1/21,-22.77039651,3.070617901,-30.57,-13.78,2976,2976
FRSM,11/1/21,-17.16340625,2.568107839,-23.72,-11.26,2880,2880
FRSM,12/1/21,-11.65649627,2.38643669,-16.94,-4.579,2545,2545